Regional Weather Roundup
Issued by NWS

Home | Current Version | Previous Version | Graphics & Text | Print | Product List | Glossary On
Versions: 1 2 3 4 5 6 7 8 9 10 11 12 13 14 15 16 17 18 19 20 21 22 23 24 25 26 27 28 29 30 31 32 33 34 35 36 37 38 39 40 41 42 43 44 45 46 47 48 49 50
024
ASUS43 KOAX 281010
RWRNE

WEATHER ROUNDUP FOR NEBRASKA
NATIONAL WEATHER SERVICE OMAHA NE
500 AM CDT FRI JUL 28 2017

NOTES: SATELLITE DATA IS BEING USED TO AUGMENT CLOUD COVER ABOVE
       12000 FEET.
       "FAIR" INDICATES FEW OR NO CLOUDS BELOW 12,000 FEET WITH NO
       SIGNIFICANT WEATHER AND/OR OBSTRUCTIONS TO VISIBILITY.


NEZ001>004-019>022-054>056-281100-
NEBRASKA PANHANDLE

CITY           SKY/WX    TMP DP  RH WIND       PRES   REMARKS
SCOTTSBLUFF    CLOUDY    65  61  87 E7        30.09S
ALLIANCE       MOCLDY    62  60  93 MISG      30.06S
CHADRON        CLOUDY    63  59  87 S3        30.09S
GORDON         FAIR      61  59  93 CALM      30.08S
KIMBALL        CLOUDY    62  62  99 E12G18    30.14S
SIDNEY         CLOUDY    63  58  83 E12       30.12F
$$

NEZ057>060-069>072-079>082-281100-
SOUTHWEST NEBRASKA

CITY           SKY/WX    TMP DP  RH WIND       PRES   REMARKS
NORTH PLATTE   CLOUDY    68  63  84 CALM      30.10S
IMPERIAL       CLOUDY    66  62  87 N13       30.13R
LEXINGTON      MOCLDY    65  63  93 CALM      30.08R FOG
MCCOOK         PTCLDY    67  63  87 CALM      30.07R
OGALLALA       CLOUDY    65  64  94 SE3       30.10F
$$

NEZ005>010-023>029-035>040-094-281100-
NORTH CENTRAL NEBRASKA

CITY           SKY/WX    TMP DP  RH WIND       PRES   REMARKS
VALENTINE      PTCLDY    70  59  68 SE12      30.05F
AINSWORTH      CLOUDY    67  63  86 S6        30.08F
BROKEN BOW     CLOUDY    65  62  90 CALM      30.07F
O`NEILL        CLOUDY    68  64  86 CALM      30.08R
ORD            MOCLDY    65  62  90 CALM      30.05F
THEDFORD       MOCLDY    67  63  88 SE8       30.07F
$$

NEZ041-046>049-061>064-073>077-083>087-281100-
SOUTH CENTRAL NEBRASKA

CITY           SKY/WX    TMP DP  RH WIND       PRES   REMARKS
GRAND ISLAND   PTCLDY    64  64 100 CALM      30.06S FOG
AURORA         PTCLDY    62  62 100 N5        30.06R
HASTINGS       CLOUDY    62  60  93 E3        30.06F
HEBRON         PTCLDY    64  63  96 CALM      30.03S
HOLDREGE       PTCLDY    62  60  94 CALM      30.07S
KEARNEY        PTCLDY    64  62  93 N6        30.08R
YORK           PTCLDY    61  61 100 CALM      30.05S
$$

NEZ011>018-030>034-042>045-281100-
NORTHEAST NEBRASKA

CITY           SKY/WX    TMP DP  RH WIND       PRES   REMARKS
NORFOLK        CLOUDY    67  61  81 CALM      30.05R
ALBION         CLOUDY    67  65  96 CALM      30.06S
BLAIR          CLEAR     66  64  94 N6        30.03S
COLUMBUS       CLOUDY    65  64  97 NE3       30.05S
FREMONT        CLEAR     65  64  96 CALM      30.03F
TEKAMAH        PTCLDY    64  62  93 N5        30.03S
WAYNE          CLOUDY    62  61  98 CALM      30.05F
$$

NEZ050>053-065>068-078-088>093-281100-
SOUTHEAST NEBRASKA

CITY           SKY/WX    TMP DP  RH WIND       PRES   REMARKS
LINCOLN        CLEAR     64  61  90 N3        30.03F
OMAHA EPPLEY   CLEAR     65  62  90 N5        30.02S
BEATRICE       MOCLDY    65  64  93 NE6       30.02R
FALLS CITY     CLOUDY    68  64  87 N6        29.98S
NEBRASKA CITY  CLEAR     65  65 100 N6        30.01S
PLATTSMOUTH    CLEAR     64  61  91 CALM      30.03R
$$

NEZ044-045-051>053-067-281100-
OMAHA AREA

CITY           SKY/WX    TMP DP  RH WIND       PRES   REMARKS
OMAHA EPPLEY   CLEAR     65  62  90 N5        30.02S
BLAIR          CLEAR     66  64  94 N6        30.03S
FREMONT        CLEAR     65  64  96 CALM      30.03F
MILLARD        PTCLDY    69  65  90 CALM      30.02F
OFFUTT AFB     PTCLDY    65  62  90 CALM      30.02R
PLATTSMOUTH    CLEAR     64  61  91 CALM      30.03R
WAHOO          FAIR      63  62  97 CALM      30.03F
$$




USA.gov is the U.S. government's official web portal to all federal, state and local government web resources and services.